Hourly Data Report for July 16, 2021

FISHER BRANCH (AUT)
MANITOBA
Current Station Operator: ECCC - MSC

51°05'00.100" N
97°33'16.200" W
253.00 m
50309J6
71442
WSZ

Download Data

Hourly Data (July 2021)
Hourly Data Report for July 16, 2021
TIME
LST
Temp Definition
°C
Dew Point Definition
°C
Rel Hum Definition
%
Precip. Amount Definition
mm

Wind Dir Definition
10's deg

Wind Spd Definition
km/h
Visibility Definition
km
Stn Press Definition
kPa
Hmdx Definition


Wind Chill Definition


Weather Definition


00:00 21.2 14.8 67 0.0 17 10   98.01 25   LegendNANA
01:00 20.4 14.7 70 0.0 18 8   97.99     LegendNANA
02:00 19.8 14.6 72 0.0 18 8   97.97     LegendNANA
03:00 19.1 14.2 73 0.0 19 8   97.99     LegendNANA
04:00 18.1 13.9 76 0.0 18 7   98.00     LegendNANA
05:00 18.2 14.2 77 0.0 19 10   98.02     LegendNANA
06:00 20.1 14.9 72 0.0 19 12   98.02     LegendNANA
07:00 21.2 15.3 69 0.0 20 12   98.05 25   LegendNANA
08:00 23.8 15.9 61 0.0 20 17   98.07 28   LegendNANA
09:00 26.4 15.9 53 0.0 19 16   98.09 31   LegendNANA
10:00 28.8 15.4 44 0.0 19 21   98.11 33   LegendNANA
11:00 30.9 15.5 39 0.0 19 18   98.11 35   LegendNANA
12:00 32.0 14.1 34 0.0 20 20   98.09 35   LegendNANA
13:00 32.7 11.9 28 0.0 21 21   98.11 35   LegendNANA
14:00 33.6 10.3 24 0.0 20 21   98.10 35   LegendNANA
15:00 33.0 9.5 24 0.0 22 18   98.10 34   LegendNANA
16:00 33.2 10.8 25 0.0 21 19   98.11 35   LegendNANA
17:00 32.7 10.8 26 0.0 20 18   98.12 34   LegendNANA
18:00 31.8 11.0 28 0.0 23 16   98.15 34   LegendNANA
19:00 30.4 11.5 31 0.0 21 12   98.17 32   LegendNANA
20:00 27.4 13.5 43 0.0 20 9   98.20 30   LegendNANA
21:00 25.9 14.1 48 0.0 20 10   98.27 29   LegendNANA
22:00 23.9 14.0 54 0.0 18 9   98.31 27   LegendNANA
23:00 22.5 14.8 61 0.0 18 9   98.34 26   LegendNANA

Notes on Data Quality.

Legend

  • E = Estimated
  • M = Missing
  • NA = Not Available*
  • [empty] = Indicates an unobserved value
Date modified: